Regional Weather Roundup
Issued by NWS

Home | Current Version | Previous Version | Text Only | Print | Product List | Glossary Off
Versions: 1 2 3 4 5 6 7 8 9 10 11 12 13 14 15 16 17 18 19 20 21 22 23 24 25 26 27 28 29 30 31 32 33 34 35 36 37 38 39 40 41 42 43 44 45 46 47 48 49 50

000
ASUS45 KSLC 261710
RWRUT

UTAH REGIONAL WEATHER ROUNDUP
NATIONAL WEATHER SERVICE SALT LAKE CITY UT
1100 AM MDT TUE MAY 26 2015

UTZ001>011-023>025-261800-

NORTHERN UTAH

CITY           SKY/WX    TMP DP  RH WIND       PRES   REMARKS
BRIGHAM CITY   CLOUDY    57  48  70 S12       30.05R
DUGWAY         PTSUNNY   59  52  77 S10       30.06S
HILL AFB       NOT AVBL
LOGAN          LGT RAIN  55  49  80 S6        30.04S
OGDEN          LGT RAIN  52  50  93 NE6       30.05F FOG
PROVO AIRPORT  LGT RAIN  54  48  82 E9        30.09S
SALT LAKE CITY LGT RAIN  60  49  66 SW10      30.04R
VERNAL         PTSUNNY   60  46  59 SE7       30.08S
WENDOVER       CLOUDY    63  48  59 E7        30.03S
HEBER CITY     DRIZZLE   48  45  87 CALM      30.10S
WEST JORDAN    CLOUDY    57  50  77 SE18      30.06R

$$

UTZ012>022-026-027-261800-

SOUTHERN/CENTRAL UTAH

CITY           SKY/WX    TMP DP  RH WIND       PRES   REMARKS
BLANDING       SUNNY     59  46  63 S7        30.21S
BRYCE CANYON   CLOUDY    52  41  66 W13       30.20S
CEDAR CITY     PTSUNNY   60  49  66 CALM      30.10S
DELTA          PTSUNNY   60  45  56 S14G21    30.07S
HANKSVILLE     CLOUDY    68  41  37 NW5       30.07S
MILFORD        MOSUNNY   61  49  64 S17       30.07S
MOAB/CYNLANDS  SUNNY     68  44  42 E9        30.03F
PRICE          CLOUDY    59  42  53 SE8       30.10R
ST GEORGE      CLOUDY    73  45  35 N7        30.02S
KANAB          MOSUNNY   64  45  48 SW6       30.13S

$$

REGIONAL REPORTS     COLORADO/ARIZONA

CITY           SKY/WX    TMP DP  RH WIND       PRES   REMARKS
CRAIG, CO      MOSUNNY   60  45  57 N7        30.11F
GRAND JUNCTION CLOUDY    63  45  51 SE3       30.06F
RIFLE          MOSUNNY   59  47  64 E3        30.10F
MONTROSE       PTSUNNY   64  43  46 NW7       30.12S
CORTEZ         SUNNY     63  45  51 SW6       30.14F
PAGE, AZ       SUNNY     71  43  36 VRB6      30.06S
GRAND CANYON   SUNNY     62  36  37 W8        30.19R
KINGMAN        SUNNY     77  30  17 W9G17     30.01F
FLAGSTAFF      MOSUNNY   61  34  36 VRB7      30.20S

$$

REGIONAL REPORTS    NEVADA/IDAHO/WYOMING

CITY           SKY/WX    TMP DP  RH WIND       PRES   REMARKS
LAS VEGAS, NV  MOSUNNY   81  41  24 CALM      29.90S
ELY            MOSUNNY   60  40  47 CALM      30.10S
ELKO           MOSUNNY   61  47  59 S6        30.05F
POCATELLO, ID  LGT RAIN  57  50  77 W10       30.03R
BURLEY         CLOUDY    62  46  55 VRB5      30.00S
EVANSTON, WY   CLOUDY    49  42  77 N3        30.12F
ROCK SPRINGS   MOSUNNY   56  43  61 SW10      30.10S
KEMMERER       PTSUNNY   54  37  54 SW5       30.12S

$$



USA.gov is the U.S. government's official web portal to all federal, state and local government web resources and services.